Location: Paderno d�Adda
(45.6667°N, 9.4333°E)
Time: 20:53:58
(UTC+00:00)

Lacrosse 5 rocket - Pass Details

Date: 19 September 2020
Orbit: 460 x 636 km, 57.0° (Epoch: 27 October)

Event Time Altitude Azimuth Distance (km) Brightness Sun altitude
Rises 21:21:30 0° 309° (NW) 2,853 5.9 -36.9°
Reaches altitude 10° 21:24:01 10° 322° (NW) 1,973 4.9 -37.2°
Enters shadow 21:24:59 15° 329° (NNW) 1,676 4.4 -37.3°
